FW3734 Weather Reports


time (UTC)temp
F
wind
direction
speed
knots
gust
knots
rain 1hr
in
rain 24hr
in
rain mn
in
humidity
%
barometer
mb
20260510191537 66 231 0.0 7.0 0.00 0.11 0.08 40 1019.3
20260510190045 67 46 0.0 8.7 0.00 0.11 0.08 38 1019.3
20260510184531 66 355 0.9 7.8 0.00 0.11 0.08 40 1019.3
20260510183031 66 29 0.9 11.3 0.00 0.11 0.08 40 1019.1
20260510181531 65 86 0.9 9.6 0.00 0.11 0.08 41 1018.9
20260510180033 66 14 1.7 12.2 0.00 0.11 0.08 39 1019.0
20260510174527 66 338 0.9 7.0 0.00 0.11 0.08 41 1019.1
20260510173026 64 43 0.0 9.6 0.00 0.11 0.08 47 1019.3
20260510171524 64 24 0.0 5.2 0.00 0.11 0.08 45 1019.3
20260510170024 64 340 0.0 5.2 0.00 0.11 0.08 47 1019.3
20260510164524 64 23 0.0 7.8 0.00 0.11 0.08 43 1019.3
20260510163023 65 288 0.0 5.2 0.00 0.11 0.08 44 1019.6
20260510161524 64 84 0.0 9.6 0.00 0.11 0.08 45 1019.6
20260510160030 63 10 0.0 7.0 0.00 0.11 0.08 44 1019.5
20260510154522 64 25 0.0 4.3 0.00 0.11 0.08 43 1019.3
20260510153013 64 343 0.0 5.2 0.00 0.11 0.08 43 1019.0
20260510151521 63 18 0.0 2.6 0.00 0.11 0.08 48 1018.7
20260510150008 62 355 0.9 7.0 0.00 0.11 0.08 49 1018.8
20260510144506 63 325 0.0 9.6 0.00 0.11 0.08 50 1018.7
20260510143008 62 49 0.0 8.7 0.00 0.11 0.08 52 1018.1
20260510141605 62 13 0.0 7.0 0.00 0.11 0.08 55 1017.7
20260510140056 60 37 0.0 8.7 0.00 0.11 0.08 58 1017.9
20260510134606 60 11 0.0 7.8 0.00 0.11 0.08 63 1017.9
20260510133054 59 5 0.9 5.2 0.00 0.11 0.08 65 1018.2
20260510131551 58 344 0.0 5.2 0.00 0.11 0.08 70 1017.9
20260510130048 57 27 0.0 5.2 0.00 0.11 0.08 74 1017.6
20260510124549 56 355 0.9 7.8 0.00 0.11 0.08 78 1017.4
20260510123045 55 346 0.0 4.3 0.00 0.11 0.08 83 1017.3
20260510121542 55 347 0.0 2.6 0.00 0.11 0.08 87 1017.0
20260510120037 55 5 0.0 0.0 0.00 0.11 0.08 89 1016.9
20260510114559 54 340 0.0 1.7 0.00 0.11 0.08 91 1016.4
20260510113042 54 9 0.0 3.5 0.00 0.11 0.08 92 1016.0
20260510111532 55 10 0.0 2.6 0.00 0.11 0.08 92 1015.5
20260510110035 55 19 0.9 3.5 0.00 0.11 0.08 93 1015.2
20260510104522 56 329 0.0 0.0 0.00 0.11 0.08 93 1015.1
20260510103019 56 259 0.0 1.7 0.00 0.11 0.08 93 1014.8
20260510101516 57 331 0.0 0.0 0.00 0.11 0.08 93 1014.5
20260510100014 57 306 0.0 0.0 0.00 0.11 0.08 93 1014.6
20260510094514 57 306 0.0 0.0 0.00 0.11 0.08 93 1014.4
20260510093011 57 90 0.0 0.9 0.00 0.11 0.08 93 1014.5
20260510091508 57 90 0.0 0.0 0.00 0.11 0.08 93 1014.3
20260510090006 58 90 0.0 0.0 0.00 0.11 0.08 92 1013.8
20260510084503 58 90 0.0 0.0 0.00 0.11 0.08 92 1013.5
20260510083002 58 90 0.0 0.0 0.00 0.11 0.08 92 1013.4
20260510081558 58 90 0.0 0.0 0.00 0.11 0.08 92 1013.1
20260510080100 58 90 0.0 0.0 0.00 0.11 0.08 92 1012.7
20260510074604 59 90 0.0 0.0 0.00 0.11 0.08 92 1012.8
20260510073052 59 90 0.0 0.0 0.00 0.11 0.08 91 1012.7
20260510071549 59 90 0.0 0.0 0.00 0.11 0.08 91 1012.1
20260510070104 60 91 0.0 1.7 0.00 0.11 0.08 91 1012.1
20260510064552 60 43 0.0 5.2 0.04 0.11 0.08 91 1012.3
20260510063044 60 30 0.0 2.6 0.07 0.11 0.08 91 1012.5
20260510061540 61 25 0.0 0.0 0.07 0.11 0.08 91 1012.2
20260510060041 61 43 0.0 3.5 0.08 0.11 0.08 90 1011.5
20260510054540 61 150 0.0 0.9 0.04 0.07 0.04 91 1011.3
20260510053035 61 224 0.0 0.0 0.02 0.04 0.01 91 1011.7
20260510051535 61 115 0.0 0.9 0.02 0.04 0.01 90 1011.5
20260510050031 61 360 0.0 3.5 0.02 0.03 0.00 89 1012.1
20260510044531 61 55 1.7 7.0 0.03 0.04 0.03 89 1012.1
20260510043029 61 321 2.6 8.7 0.02 0.03 0.02 88 1012.0
20260510041537 62 66 3.5 8.7 0.02 0.03 0.02 87 1011.3
20260510040027 62 5 4.3 15.6 0.01 0.02 0.01 85 1012.0
20260510034526 64 335 4.3 15.6 0.00 0.18 0.00 80 1011.9
20260510033024 68 323 5.2 16.5 0.00 0.18 0.00 68 1011.7
20260510031528 70 245 0.0 0.0 0.00 0.18 0.00 56 1009.9
20260510030020 70 245 0.0 0.0 0.00 0.18 0.00 54 1009.5
20260510024523 70 245 0.0 0.0 0.00 0.38 0.00 54 1009.3
20260510023020 70 245 0.0 0.0 0.00 0.38 0.00 53 1009.3
20260510021530 70 245 0.0 0.0 0.00 0.38 0.00 52 1009.2
20260510020022 71 245 0.0 0.0 0.00 0.38 0.00 53 1008.8
20260510014520 71 245 0.0 0.0 0.00 0.39 0.00 51 1008.5
20260510013017 73 245 0.0 0.0 0.00 0.39 0.00 51 1008.4
20260510011517 74 245 0.0 0.0 0.00 0.39 0.00 46 1008.3
20260510010017 76 245 0.0 0.0 0.00 0.39 0.00 44 1008.3
20260510004516 78 245 0.0 0.0 0.00 0.40 0.00 41 1008.0
20260510003017 79 246 0.0 0.0 0.00 0.40 0.00 40 1007.9
20260510001521 79 246 0.0 0.0 0.00 0.40 0.00 39 1007.8
20260510000015 80 319 0.0 0.0 0.00 0.40 0.00 37 1007.7
20260509234515 80 5 0.0 7.0 0.00 0.40 0.00 36 1007.7
20260509233014 80 237 0.0 0.0 0.00 0.40 0.00 37 1007.7
20260509231513 80 254 0.0 4.3 0.00 0.40 0.00 36 1007.5
20260509230012 81 221 0.0 7.8 0.00 0.40 0.00 37 1007.6
20260509224511 81 208 0.0 0.9 0.00 0.40 0.00 37 1007.5
20260509223009 81 343 0.0 7.0 0.00 0.40 0.00 39 1007.6
20260509221508 81 347 0.0 1.7 0.00 0.40 0.00 41 1007.6
20260509220007 81 186 0.0 4.3 0.00 0.40 0.00 40 1007.6
20260509214505 81 300 0.0 4.3 0.00 0.40 0.00 41 1007.6
20260509213006 81 347 0.0 7.0 0.00 0.40 0.00 40 1007.6
20260509211502 81 211 0.0 4.3 0.00 0.40 0.00 40 1007.7
20260509210104 80 224 0.0 7.0 0.00 0.40 0.00 40 1007.9
20260509204605 80 190 0.0 3.5 0.00 0.40 0.00 42 1007.9
20260509203058 80 198 0.0 7.8 0.00 0.40 0.00 40 1008.1
20260509201554 80 257 0.0 1.7 0.00 0.40 0.00 42 1008.2
20260509200053 79 284 0.9 11.3 0.00 0.40 0.00 41 1008.3
20260509194649 78 257 0.0 2.6 0.00 0.40 0.00 45 1008.2
20260509193046 78 244 0.0 7.8 0.00 0.40 0.00 46 1008.4